• In Czech Republic
  • List of Countries
  • For 7 days
  • Water Temperature
  • Satellite Maps
  • Weather Map
  • Weather Widgets
  • user-avatar
    Login

    Hourly Weather Budapest

    Today, 16 October, Tuesday

    Time Temperature Precipitation Wind Pressure Humidity
    00:00 +14°C° 0 mm 2 mps 758 mmHg 41%
    01:00 +14°C° 0 mm 2 mps 758 mmHg 42%
    02:00 +14°C° 0 mm 2 mps 758 mmHg 44%
    03:00 +13°C° 0 mm 2 mps 758 mmHg 45%
    04:00 +13°C° 0 mm 2 mps 758 mmHg 47%
    05:00 +13°C° 0 mm 2 mps 758 mmHg 47%
    06:00 +13°C° 0 mm 2 mps 758 mmHg 47%
    07:00 +13°C° 0 mm 2 mps 758 mmHg 47%
    08:00 +15°C° 0 mm 2 mps 758 mmHg 43%
    09:00 +18°C° 0 mm 3 mps 758 mmHg 38%
    10:00 +20°C° 0 mm 3 mps 758 mmHg 33%
    11:00 +21°C° 0 mm 3 mps 758 mmHg 31%
    12:00 +22°C° 0 mm 4 mps 758 mmHg 30%
    13:00 +23°C° 0 mm 4 mps 758 mmHg 28%
    14:00 +24°C° 0 mm 3 mps 758 mmHg 30%
    15:00 +22°C° 0 mm 3 mps 757 mmHg 32%
    16:00 +23°C° 0 mm 2 mps 757 mmHg 33%
    17:00 +21°C° 0 mm 2 mps 757 mmHg 35%
    18:00 +20°C° 0 mm 2 mps 757 mmHg 36%
    19:00 +19°C° 0 mm 2 mps 757 mmHg 37%
    20:00 +18°C° 0 mm 2 mps 757 mmHg 38%
    21:00 +17°C° 0 mm 2 mps 758 mmHg 38%
    22:00 +17°C° 0 mm 2 mps 758 mmHg 39%
    23:00 +16°C° 0 mm 2 mps 758 mmHg 40%

    Tomorrow, 17 October, Wednesday

    Time Temperature Precipitation Wind Pressure Humidity
    00:00 +16°C° 0 mm 2 mps 758 mmHg 40%
    01:00 +15°C° 0 mm 2 mps 758 mmHg 41%
    02:00 +15°C° 0 mm 2 mps 757 mmHg 41%
    03:00 +15°C° 0 mm 2 mps 757 mmHg 42%
    04:00 +14°C° 0 mm 2 mps 757 mmHg 43%
    05:00 +14°C° 0 mm 2 mps 757 mmHg 43%
    06:00 +14°C° 0 mm 2 mps 757 mmHg 44%
    07:00 +14°C° 0 mm 2 mps 757 mmHg 45%
    08:00 +16°C° 0 mm 2 mps 757 mmHg 40%
    09:00 +18°C° 0 mm 2 mps 757 mmHg 36%
    10:00 +20°C° 0 mm 3 mps 757 mmHg 31%
    11:00 +21°C° 0 mm 3 mps 757 mmHg 29%
    12:00 +24°C° 0 mm 3 mps 757 mmHg 26%
    13:00 +25°C° 0 mm 3 mps 756 mmHg 24%
    14:00 +24°C° 0 mm 2 mps 756 mmHg 25%
    15:00 +24°C° 0 mm 2 mps 756 mmHg 27%
    16:00 +23°C° 0 mm 2 mps 756 mmHg 28%
    17:00 +21°C° 0 mm 2 mps 756 mmHg 30%
    18:00 +20°C° 0 mm 2 mps 756 mmHg 31%
    19:00 +18°C° 0 mm 2 mps 756 mmHg 33%
    20:00 +18°C° 0 mm 2 mps 756 mmHg 34%
    21:00 +17°C° 0 mm 2 mps 756 mmHg 34%
    22:00 +17°C° 0 mm 2 mps 756 mmHg 35%
    23:00 +16°C° 0 mm 2 mps 756 mmHg 36%

    Day after tomorrow, 18 October, Thursday

    Time Temperature Precipitation Wind Pressure Humidity
    00:00 +16°C° 0 mm 2 mps 756 mmHg 37%
    01:00 +16°C° 0 mm 1 mps 755 mmHg 38%
    02:00 +15°C° 0 mm 1 mps 755 mmHg 39%
    03:00 +15°C° 0 mm 1 mps 755 mmHg 40%
    04:00 +14°C° 0 mm 1 mps 755 mmHg 41%
    05:00 +14°C° 0 mm 1 mps 756 mmHg 41%
    06:00 +14°C° 0 mm 1 mps 756 mmHg 42%
    07:00 +14°C° 0 mm 1 mps 756 mmHg 43%
    08:00 +16°C° 0 mm 1 mps 756 mmHg 40%
    09:00 +19°C° 0 mm 1 mps 756 mmHg 37%
    10:00 +21°C° 0 mm 1 mps 756 mmHg 34%
    11:00 +22°C° 0 mm 1 mps 756 mmHg 34%
    12:00 +23°C° 0 mm 1 mps 755 mmHg 34%
    13:00 +24°C° 0 mm 1 mps 755 mmHg 34%
    14:00 +23°C° 0 mm 2 mps 755 mmHg 36%
    15:00 +21°C° 0 mm 2 mps 755 mmHg 38%
    16:00 +21°C° 0 mm 2 mps 755 mmHg 40%
    17:00 +20°C° 0 mm 2 mps 755 mmHg 41%
    18:00 +19°C° 0 mm 2 mps 755 mmHg 42%
    19:00 +18°C° 0 mm 2 mps 755 mmHg 43%
    20:00 +18°C° 0 mm 2 mps 755 mmHg 43%
    21:00 +18°C° 0 mm 2 mps 756 mmHg 44%
    22:00 +18°C° 0 mm 2 mps 756 mmHg 44%
    23:00 +17°C° 0 mm 2 mps 756 mmHg 45%

    19 October, Friday

    Time Temperature Precipitation Wind Pressure Humidity
    00:00 +17°C° 0 mm 2 mps 756 mmHg 47%
    01:00 +16°C° 0 mm 2 mps 756 mmHg 49%
    02:00 +16°C° 0 mm 2 mps 756 mmHg 51%
    03:00 +16°C° 0 mm 2 mps 756 mmHg 52%
    04:00 +15°C° 0 mm 2 mps 756 mmHg 54%
    05:00 +15°C° 0 mm 2 mps 756 mmHg 55%
    06:00 +15°C° 0 mm 2 mps 756 mmHg 56%
    07:00 +15°C° 0 mm 2 mps 756 mmHg 57%
    08:00 +16°C° 0 mm 2 mps 756 mmHg 52%
    09:00 +18°C° 0 mm 2 mps 757 mmHg 47%
    10:00 +20°C° 0 mm 2 mps 757 mmHg 42%
    11:00 +21°C° 0 mm 2 mps 756 mmHg 40%
    12:00 +23°C° 0 mm 2 mps 756 mmHg 38%
    13:00 +24°C° 0 mm 3 mps 756 mmHg 35%
    14:00 +23°C° 0 mm 2 mps 756 mmHg 37%
    15:00 +23°C° 0 mm 2 mps 756 mmHg 39%
    16:00 +21°C° 0 mm 2 mps 756 mmHg 40%
    17:00 +20°C° 0 mm 2 mps 756 mmHg 45%
    18:00 +18°C° 0 mm 2 mps 756 mmHg 50%
    19:00 +17°C° 0 mm 2 mps 757 mmHg 54%
    20:00 +16°C° 0 mm 2 mps 757 mmHg 58%
    21:00 +16°C° 0 mm 2 mps 757 mmHg 61%
    22:00 +15°C° 0 mm 2 mps 757 mmHg 65%
    23:00 +15°C° 0 mm 2 mps 757 mmHg 68%

    20 October, Saturday

    Time Temperature Precipitation Wind Pressure Humidity
    00:00 +14°C° 0 mm 1 mps 757 mmHg 71%
    01:00 +14°C° 0 mm 1 mps 757 mmHg 74%
    02:00 +13°C° 0 mm 1 mps 757 mmHg 76%
    03:00 +13°C° 0 mm 1 mps 757 mmHg 78%
    04:00 +13°C° 0 mm 1 mps 757 mmHg 80%
    05:00 +13°C° 0 mm 1 mps 758 mmHg 80%
    06:00 +13°C° 0 mm 1 mps 758 mmHg 80%
    07:00 +13°C° 0 mm 1 mps 758 mmHg 80%
    08:00 +14°C° 0 mm 1 mps 758 mmHg 72%
    09:00 +16°C° 0 mm 1 mps 758 mmHg 64%
    10:00 +19°C° 0 mm 1 mps 758 mmHg 56%
    11:00 +19°C° 0 mm 2 mps 758 mmHg 53%
    12:00 +20°C° 0 mm 2 mps 758 mmHg 49%
    13:00 +21°C° 0 mm 2 mps 757 mmHg 45%
    14:00 +20°C° 0 mm 3 mps 757 mmHg 45%
    15:00 +20°C° 0 mm 3 mps 757 mmHg 45%
    16:00 +19°C° 0 mm 3 mps 757 mmHg 45%
    17:00 +18°C° 0 mm 3 mps 757 mmHg 48%
    18:00 +17°C° 0 mm 3 mps 757 mmHg 50%
    19:00 +14°C° 0 mm 3 mps 757 mmHg 52%
    20:00 +14°C° 0 mm 3 mps 758 mmHg 51%
    21:00 +13°C° 0 mm 3 mps 758 mmHg 50%
    22:00 +13°C° 0 mm 3 mps 758 mmHg 50%
    23:00 +12°C° 0 mm 3 mps 758 mmHg 52%

    21 October, Sunday

    Time Temperature Precipitation Wind Pressure Humidity
    00:00 +11°C° 0 mm 3 mps 758 mmHg 54%
    01:00 +11°C° 0 mm 3 mps 758 mmHg 56%
    02:00 +11°C° 0 mm 3 mps 758 mmHg 57%
    03:00 +10°C° 0 mm 3 mps 758 mmHg 57%
    04:00 +10°C° 0 mm 3 mps 758 mmHg 58%
    05:00 +9°C° 0 mm 3 mps 758 mmHg 58%
    06:00 +8°C° 0 mm 4 mps 758 mmHg 59%
    07:00 +8°C° 0 mm 4 mps 759 mmHg 60%
    08:00 +10°C° 0 mm 4 mps 759 mmHg 56%
    09:00 +11°C° 0 mm 4 mps 759 mmHg 51%
    10:00 +13°C° 0 mm 4 mps 759 mmHg 47%
    11:00 +13°C° 0 mm 4 mps 758 mmHg 45%
    12:00 +14°C° 0 mm 5 mps 758 mmHg 43%
    13:00 +15°C° 0 mm 5 mps 758 mmHg 41%
    14:00 +14°C° 0 mm 5 mps 758 mmHg 41%
    15:00 +14°C° 0 mm 4 mps 758 mmHg 42%
    16:00 +13°C° 0 mm 4 mps 757 mmHg 43%
    17:00 +12°C° 0 mm 4 mps 758 mmHg 46%
    18:00 +11°C° 0 mm 4 mps 758 mmHg 49%
    19:00 +10°C° 0 mm 3 mps 758 mmHg 53%
    20:00 +10°C° 0 mm 3 mps 758 mmHg 55%
    21:00 +9°C° 0 mm 3 mps 758 mmHg 57%
    22:00 +9°C° 0 mm 3 mps 758 mmHg 59%
    23:00 +8°C° 0 mm 3 mps 758 mmHg 61%
    Show more